Hourly Weather Abu Ghosh

Today, 29 July, Thursday

Time Temperature Precipitation Wind Pressure Humidity
00:00 +24°C° 0 mm 3 mps 699 mmHg 80%
01:00 +24°C° 0 mm 2 mps 698 mmHg 82%
02:00 +24°C° 0 mm 2 mps 698 mmHg 83%
03:00 +23°C° 0 mm 2 mps 698 mmHg 85%
04:00 +23°C° 0 mm 2 mps 698 mmHg 87%
05:00 +23°C° 0 mm 2 mps 698 mmHg 89%
06:00 +24°C° 0 mm 2 mps 698 mmHg 80%
07:00 +26°C° 0 mm 3 mps 699 mmHg 71%
08:00 +27°C° 0 mm 3 mps 699 mmHg 62%
09:00 +29°C° 0 mm 4 mps 699 mmHg 53%
10:00 +30°C° 0 mm 5 mps 699 mmHg 44%
11:00 +33°C° 0 mm 6 mps 699 mmHg 35%
12:00 +33°C° 0 mm 6 mps 699 mmHg 34%
13:00 +34°C° 0 mm 6 mps 699 mmHg 32%
14:00 +34°C° 0 mm 7 mps 699 mmHg 31%
15:00 +33°C° 0 mm 7 mps 698 mmHg 34%
16:00 +32°C° 0 mm 7 mps 698 mmHg 36%
17:00 +30°C° 0 mm 7 mps 698 mmHg 39%
18:00 +29°C° 0 mm 5 mps 698 mmHg 47%
19:00 +28°C° 0 mm 4 mps 698 mmHg 54%
20:00 +26°C° 0 mm 3 mps 698 mmHg 61%
21:00 +26°C° 0 mm 2 mps 698 mmHg 64%
22:00 +25°C° 0 mm 2 mps 698 mmHg 67%
23:00 +25°C° 0 mm 2 mps 698 mmHg 69%

Tomorrow, 30 July, Friday

Time Temperature Precipitation Wind Pressure Humidity
00:00 +24°C° 0 mm 2 mps 698 mmHg 71%
01:00 +24°C° 0 mm 2 mps 697 mmHg 73%
02:00 +23°C° 0 mm 2 mps 697 mmHg 74%
03:00 +23°C° 0 mm 2 mps 697 mmHg 77%
04:00 +23°C° 0 mm 2 mps 697 mmHg 79%
05:00 +21°C° 0 mm 2 mps 697 mmHg 82%
06:00 +24°C° 0 mm 2 mps 698 mmHg 74%
07:00 +25°C° 0 mm 2 mps 698 mmHg 66%
08:00 +27°C° 0 mm 2 mps 698 mmHg 57%
09:00 +28°C° 0 mm 2 mps 698 mmHg 50%
10:00 +30°C° 0 mm 2 mps 699 mmHg 42%
11:00 +33°C° 0 mm 3 mps 699 mmHg 34%
12:00 +33°C° 0 mm 4 mps 698 mmHg 33%
13:00 +34°C° 0 mm 4 mps 698 mmHg 32%
14:00 +34°C° 0 mm 5 mps 698 mmHg 31%
15:00 +33°C° 0 mm 5 mps 698 mmHg 33%
16:00 +33°C° 0 mm 6 mps 697 mmHg 35%
17:00 +32°C° 0 mm 6 mps 697 mmHg 37%
18:00 +29°C° 0 mm 5 mps 697 mmHg 43%
19:00 +28°C° 0 mm 3 mps 698 mmHg 49%
20:00 +27°C° 0 mm 2 mps 698 mmHg 55%
21:00 +26°C° 0 mm 2 mps 698 mmHg 55%
22:00 +26°C° 0 mm 1 mps 697 mmHg 54%
23:00 +26°C° 0 mm 1 mps 697 mmHg 54%

Day after tomorrow, 31 July, Saturday

Time Temperature Precipitation Wind Pressure Humidity
00:00 +25°C° 0 mm 1 mps 697 mmHg 51%
01:00 +25°C° 0 mm 1 mps 697 mmHg 48%
02:00 +25°C° 0 mm 1 mps 696 mmHg 45%
03:00 +24°C° 0 mm 1 mps 697 mmHg 47%
04:00 +24°C° 0 mm 1 mps 697 mmHg 50%
05:00 +23°C° 0 mm 1 mps 697 mmHg 52%
06:00 +25°C° 0 mm 1 mps 697 mmHg 46%
07:00 +27°C° 0 mm 1 mps 697 mmHg 41%
08:00 +28°C° 0 mm 1 mps 698 mmHg 35%
09:00 +30°C° 0 mm 1 mps 698 mmHg 32%
10:00 +32°C° 0 mm 2 mps 698 mmHg 28%
11:00 +34°C° 0 mm 3 mps 698 mmHg 24%
12:00 +35°C° 0 mm 4 mps 698 mmHg 24%
13:00 +35°C° 0 mm 4 mps 698 mmHg 24%
14:00 +35°C° 0 mm 5 mps 698 mmHg 24%
15:00 +35°C° 0 mm 5 mps 698 mmHg 26%
16:00 +34°C° 0 mm 5 mps 698 mmHg 28%
17:00 +33°C° 0 mm 5 mps 698 mmHg 30%
18:00 +32°C° 0 mm 4 mps 698 mmHg 35%
19:00 +29°C° 0 mm 3 mps 698 mmHg 39%
20:00 +28°C° 0 mm 2 mps 698 mmHg 44%
21:00 +27°C° 0 mm 1 mps 698 mmHg 42%
22:00 +27°C° 0 mm 1 mps 698 mmHg 41%
23:00 +27°C° 0 mm 1 mps 698 mmHg 39%

1 August, Sunday

Time Temperature Precipitation Wind Pressure Humidity
00:00 +26°C° 0 mm 1 mps 698 mmHg 38%
01:00 +26°C° 0 mm 1 mps 697 mmHg 37%
02:00 +26°C° 0 mm 1 mps 697 mmHg 36%
03:00 +25°C° 0 mm 1 mps 697 mmHg 37%
04:00 +25°C° 0 mm 1 mps 697 mmHg 38%
05:00 +24°C° 0 mm 1 mps 697 mmHg 39%
06:00 +26°C° 0 mm 1 mps 698 mmHg 36%
07:00 +28°C° 0 mm 1 mps 698 mmHg 32%
08:00 +29°C° 0 mm 1 mps 699 mmHg 29%
09:00 +31°C° 0 mm 2 mps 699 mmHg 26%
10:00 +32°C° 0 mm 2 mps 699 mmHg 24%
11:00 +35°C° 0 mm 3 mps 699 mmHg 21%
12:00 +35°C° 0 mm 4 mps 699 mmHg 21%
13:00 +36°C° 0 mm 5 mps 699 mmHg 20%
14:00 +36°C° 0 mm 5 mps 699 mmHg 20%
15:00 +35°C° 0 mm 6 mps 699 mmHg 22%
16:00 +35°C° 0 mm 6 mps 699 mmHg 23%
17:00 +34°C° 0 mm 6 mps 699 mmHg 25%
18:00 +32°C° 0 mm 5 mps 699 mmHg 30%
19:00 +30°C° 0 mm 3 mps 699 mmHg 35%
20:00 +28°C° 0 mm 2 mps 699 mmHg 39%
21:00 +28°C° 0 mm 2 mps 698 mmHg 38%
22:00 +28°C° 0 mm 1 mps 698 mmHg 36%
23:00 +27°C° 0 mm 1 mps 698 mmHg 34%

2 August, Monday

Time Temperature Precipitation Wind Pressure Humidity
00:00 +27°C° 0 mm 1 mps 698 mmHg 35%
01:00 +27°C° 0 mm 1 mps 698 mmHg 35%
02:00 +26°C° 0 mm 1 mps 698 mmHg 36%
03:00 +26°C° 0 mm 2 mps 698 mmHg 38%
04:00 +25°C° 0 mm 2 mps 698 mmHg 40%
05:00 +25°C° 0 mm 2 mps 698 mmHg 42%
06:00 +26°C° 0 mm 2 mps 698 mmHg 38%
07:00 +28°C° 0 mm 2 mps 699 mmHg 35%
08:00 +30°C° 0 mm 1 mps 699 mmHg 31%
09:00 +31°C° 0 mm 2 mps 699 mmHg 28%
10:00 +34°C° 0 mm 3 mps 699 mmHg 25%
11:00 +35°C° 0 mm 4 mps 699 mmHg 22%
12:00 +36°C° 0 mm 5 mps 699 mmHg 22%
13:00 +36°C° 0 mm 5 mps 699 mmHg 21%
14:00 +36°C° 0 mm 6 mps 699 mmHg 21%
15:00 +35°C° 0 mm 6 mps 698 mmHg 23%
16:00 +34°C° 0 mm 6 mps 698 mmHg 26%
17:00 +33°C° 0 mm 6 mps 698 mmHg 28%
18:00 +32°C° 0 mm 4 mps 698 mmHg 32%
19:00 +30°C° 0 mm 3 mps 698 mmHg 37%
20:00 +28°C° 0 mm 2 mps 698 mmHg 42%
21:00 +28°C° 0 mm 1 mps 698 mmHg 39%
22:00 +28°C° 0 mm 1 mps 698 mmHg 36%
23:00 +28°C° 0 mm 1 mps 698 mmHg 33%

3 August, Tuesday

Time Temperature Precipitation Wind Pressure Humidity
00:00 +28°C° 0 mm 1 mps 698 mmHg 32%
01:00 +27°C° 0 mm 1 mps 698 mmHg 31%
02:00 +25°C° 0 mm 0 mps 698 mmHg 30%
03:00 +25°C° 0 mm 0 mps 698 mmHg 30%
04:00 +26°C° 0 mm 1 mps 698 mmHg 30%
05:00 +26°C° 0 mm 1 mps 698 mmHg 31%
06:00 +28°C° 0 mm 1 mps 699 mmHg 28%
07:00 +30°C° 0 mm 1 mps 699 mmHg 25%
08:00 +31°C° 0 mm 1 mps 700 mmHg 23%
09:00 +33°C° 0 mm 1 mps 700 mmHg 21%
10:00 +35°C° 0 mm 2 mps 700 mmHg 18%
11:00 +37°C° 0 mm 2 mps 700 mmHg 16%
12:00 +37°C° 0 mm 3 mps 700 mmHg 16%
13:00 +38°C° 0 mm 4 mps 700 mmHg 15%
14:00 +39°C° 0 mm 5 mps 700 mmHg 15%
15:00 +39°C° 0 mm 5 mps 700 mmHg 16%
16:00 +38°C° 0 mm 6 mps 700 mmHg 17%
17:00 +36°C° 0 mm 6 mps 700 mmHg 18%
18:00 +35°C° 0 mm 5 mps 700 mmHg 20%
19:00 +33°C° 0 mm 4 mps 700 mmHg 23%
20:00 +31°C° 0 mm 3 mps 700 mmHg 26%
21:00 +31°C° 0 mm 2 mps 700 mmHg 24%
22:00 +30°C° 0 mm 2 mps 700 mmHg 23%
23:00 +30°C° 0 mm 1 mps 700 mmHg 21%
Show more

We Need Your Consent

Meteoprog and our Service Providers may store and access personal data such as cookies, device identifiers or other similar technologies on your device and process such data to personalise content and ads, as well as provide social media features and to analyse the traffic.

  • Store and/or access information on your device

    Cookies, device identifiers or other information can be stored or accessed on your device for the purposes indicated above.

  • Personalised ads and content, ad and content measurement, audience insights, and products development

    Ads and content can be personalised based on a profile. More data can be added to better personalise ads and content. Ad and content performance can be measured. Insights about the audience who saw the ads and content can be derived. Such data can be used to develop or improve user’s experience, systems and software.

By clicking ‘I Agree’ you will allow the use of indicated cookies, device identifiers, web beacons or other similar technologies. Your settings can be changed in the browser on your device.

For certain purposes, legitimate interests may be relied on, rather than consent. You can read more about this in our Privacy and Cookie Policy.